Location: Staunton
(38.1490°N, 79.0720°W)
Time: 14:15:48
(UTC-04:00)

ISS - Pass Details

Date: 18 July 2019
Orbit: 409 x 418 km, 51.6° (Epoch: 20 July)

Event Time Altitude Azimuth Distance (km) Brightness Sun altitude
Rises 04:55:14 0° 306° (NW) 2,340 -0.1 -12.6°
Reaches altitude 10° 04:57:20 10° 303° (WNW) 1,474 -1.2 -12.3°
Maximum altitude 05:00:36 63° 222° (SW) 461 -3.9 -11.8°
Drops below altitude 10° 05:03:51 10° 141° (SE) 1,463 -1.0 -11.3°
Sets 05:05:56 0° 138° (SE) 2,320 0.1 -11.0°
